Location: Darmstadt
(49.8706°N, 8.6494°E)
Time: 06:38:41
(UTC+01:00)

SJ 16-02 - Pass Details

Date: 31 October 2020
Orbit: 605 x 617 km, 75.0° (Epoch: 03 December)

Event Time Altitude Azimuth Distance (km) Brightness Sun altitude
Rises 19:59:38 0° 339° (NNW) 2,898 5.2 -28.7°
Reaches altitude 10° 20:01:54 10° 342° (NNW) 1,989 4.3 -29.1°
Enters shadow 20:03:25 21° 346° (NNW) 1,404 3.4 -29.3°
